sat.trackr.live / text

‹ back to catalog

STARLINK-37293

NORAD 68978 · 2026-099AD

PAYLOAD ACTIVE UNKNOWN

§ Identity

Operator
Country
US
Launch date
2026-05-01
Launch site
AFETR
Launch vehicle
Mass (kg)
RCS (m²)

Purposes: comms

External: N2YO · Heavens-Above · Gunter

§ Orbital elements

Epoch: 2026-09-19T21:04:56.087616Z

Period
93.85 min
Inclination
53.1598°
Eccentricity
0.0001321
Mean motion
15.34418649 rev/d
Perigee alt
461.7 km
Apogee alt
463.6 km
Semi-major
6,840.8 km
B*
7.0999e-4
RAAN
78.3516°
Arg perigee
80.8662°
Mean anomaly
279.2490°
Rev number
2,181

§ Raw data

STARLINK-372931 68978U 26099AD  26262.87842694  .00023702  00000+0  70999-3 0  99902 68978  53.1598  78.3516 0001321  80.8662 279.2490 15.34418649 21818

JSON: /api/v1/satellites/68978 · /tle

For live sub-satellite position, see the globe view (requires WebGL).

§ Visibility from observer

Set your observer location to see the next 7 days of passes ≥ 10°. The values pass through the URL so the page stays shareable.

No JS? Fill the form by hand. The geolocation button needs JavaScript.